Time,TemperatureF,DewpointF,PressureIn,WindDirection,WindDirectionDegrees,WindSpeedMPH,WindSpeedGustMPH,Humidity,HourlyPrecipIn,Conditions,Clouds,dailyrainin,SolarRadiationWatts/m^2,SoftwareType,DateUTC
2013-03-08 00:03:00,30.4,29.1,30.01,NNE,18,3.0,3.0,95,0.00,,,0.00,0,Wunderground v.1.15,2013-03-08 05:03:00,
2013-03-08 00:08:00,30.4,29.1,30.01,NE,38,2.0,3.0,95,0.00,,,0.00,0,Wunderground v.1.15,2013-03-08 05:08:00,
2013-03-08 00:13:00,30.3,29.0,30.01,NNE,26,1.0,4.0,95,0.00,,,0.00,0,Wunderground v.1.15,2013-03-08 05:13:00,
2013-03-08 00:18:00,30.3,29.0,30.01,NNE,22,2.0,7.0,95,0.00,,,0.00,0,Wunderground v.1.15,2013-03-08 05:18:00,
2013-03-08 00:23:00,30.3,29.0,30.01,NE,35,2.0,2.0,95,0.00,,,0.00,0,Wunderground v.1.15,2013-03-08 05:23:00,
2013-03-08 00:28:00,30.3,29.3,30.00,NW,317,2.0,2.0,96,0.00,,,0.00,0,Wunderground v.1.15,2013-03-08 05:28:00,
2013-03-08 00:38:00,30.2,28.9,30.00,NNW,331,2.0,5.0,95,0.00,,,0.00,0,Wunderground v.1.15,2013-03-08 05:38:00,
2013-03-08 00:43:00,30.1,29.1,30.00,NE,47,2.0,2.0,96,0.00,,,0.00,0,Wunderground v.1.15,2013-03-08 05:43:00,
2013-03-08 00:48:00,30.1,29.1,30.00,NE,44,2.0,2.0,96,0.00,,,0.00,0,Wunderground v.1.15,2013-03-08 05:48:00,
2013-03-08 00:58:00,30.1,29.1,30.00,NNE,12,1.0,4.0,96,0.00,,,0.00,0,Wunderground v.1.15,2013-03-08 05:58:00,
2013-03-08 01:03:00,30.1,29.1,30.00,NNE,16,1.0,3.0,96,0.00,,,0.00,0,Wunderground v.1.15,2013-03-08 06:03:00,
2013-03-08 01:08:00,30.1,29.1,30.00,NNE,22,1.0,4.0,96,0.00,,,0.00,0,Wunderground v.1.15,2013-03-08 06:08:00,
2013-03-08 01:13:00,30.0,29.0,30.00,NW,311,1.0,2.0,96,0.00,,,0.00,0,Wunderground v.1.15,2013-03-08 06:13:00,
2013-03-08 01:18:00,30.0,29.0,29.99,NE,49,2.0,3.0,96,0.00,,,0.00,0,Wunderground v.1.15,2013-03-08 06:18:00,
2013-03-08 01:23:00,30.0,29.0,30.00,NNE,30,2.0,2.0,96,0.00,,,0.00,0,Wunderground v.1.15,2013-03-08 06:23:00,
2013-03-08 01:33:00,30.0,29.0,29.99,North,360,2.0,2.0,96,0.00,,,0.00,0,Wunderground v.1.15,2013-03-08 06:33:00,
2013-03-08 01:38:00,30.0,29.0,29.99,NE,35,2.0,2.0,96,0.00,,,0.00,0,Wunderground v.1.15,2013-03-08 06:38:00,
2013-03-08 01:43:00,29.9,28.9,29.99,North,5,1.0,1.0,96,0.00,,,0.00,0,Wunderground v.1.15,2013-03-08 06:43:00,
2013-03-08 01:48:00,29.9,28.9,29.99,ENE,64,1.0,1.0,96,0.00,,,0.00,0,Wunderground v.1.15,2013-03-08 06:48:00,
2013-03-08 01:53:00,29.9,28.9,29.98,SW,230,1.0,1.0,96,0.00,,,0.00,0,Wunderground v.1.15,2013-03-08 06:53:00,
2013-03-08 02:03:00,29.9,28.9,29.98,NNE,31,1.0,4.0,96,0.00,,,0.00,0,Wunderground v.1.15,2013-03-08 07:03:00,
2013-03-08 02:13:00,29.8,28.8,29.98,NE,36,1.0,1.0,96,0.00,,,0.00,0,Wunderground v.1.15,2013-03-08 07:13:00,
2013-03-08 02:18:00,29.9,28.9,29.98,NNE,17,1.0,1.0,96,0.00,,,0.00,0,Wunderground v.1.15,2013-03-08 07:18:00,
2013-03-08 02:23:00,29.8,28.8,29.98,ENE,69,1.0,1.0,96,0.00,,,0.00,0,Wunderground v.1.15,2013-03-08 07:23:00,
2013-03-08 02:28:00,29.8,28.8,29.98,WNW,303,1.0,2.0,96,0.00,,,0.00,0,Wunderground v.1.15,2013-03-08 07:28:00,
2013-03-08 02:38:00,29.8,28.8,29.98,NE,53,2.0,6.0,96,0.00,,,0.00,0,Wunderground v.1.15,2013-03-08 07:38:00,
2013-03-08 02:43:00,29.8,28.8,29.98,NNW,333,2.0,2.0,96,0.00,,,0.00,0,Wunderground v.1.15,2013-03-08 07:43:00,
2013-03-08 02:48:00,29.8,28.8,29.97,NE,38,2.0,2.0,96,0.00,,,0.00,0,Wunderground v.1.15,2013-03-08 07:48:00,
2013-03-08 02:53:00,29.8,28.8,29.97,NE,42,2.0,4.0,96,0.00,,,0.00,0,Wunderground v.1.15,2013-03-08 07:53:00,
2013-03-08 02:58:00,29.8,28.8,29.97,NE,46,2.0,4.0,96,0.00,,,0.00,0,Wunderground v.1.15,2013-03-08 07:58:00,
2013-03-08 03:08:00,29.8,28.8,29.97,NNE,22,2.0,6.0,96,0.00,,,0.00,0,Wunderground v.1.15,2013-03-08 08:08:00,
2013-03-08 03:13:00,29.8,28.8,29.97,North,9,2.0,2.0,96,0.00,,,0.00,0,Wunderground v.1.15,2013-03-08 08:13:00,
2013-03-08 03:18:00,29.8,28.8,29.97,NNW,347,2.0,2.0,96,0.00,,,0.00,0,Wunderground v.1.15,2013-03-08 08:18:00,
2013-03-08 03:23:00,29.8,28.8,29.97,NNE,21,2.0,3.0,96,0.00,,,0.00,0,Wunderground v.1.15,2013-03-08 08:23:00,
2013-03-08 03:33:00,29.8,28.8,29.97,North,355,2.0,4.0,96,0.00,,,0.00,0,Wunderground v.1.15,2013-03-08 08:33:00,
2013-03-08 03:38:00,29.7,28.7,29.97,WNW,284,2.0,4.0,96,0.00,,,0.00,0,Wunderground v.1.15,2013-03-08 08:38:00,
2013-03-08 03:43:00,29.7,28.7,29.97,NNE,22,2.0,2.0,96,0.00,,,0.00,0,Wunderground v.1.15,2013-03-08 08:43:00,
2013-03-08 03:48:00,29.7,29.0,29.97,ENE,69,2.0,2.0,97,0.00,,,0.00,0,Wunderground v.1.15,2013-03-08 08:48:00,
2013-03-08 03:58:00,29.7,29.0,29.97,NE,49,2.0,2.0,97,0.00,,,0.00,0,Wunderground v.1.15,2013-03-08 08:58:00,
2013-03-08 04:03:00,29.7,29.0,29.97,North,5,2.0,3.0,97,0.00,,,0.00,0,Wunderground v.1.15,2013-03-08 09:03:00,
2013-03-08 04:08:00,29.7,29.0,29.97,NNE,13,2.0,5.0,97,0.00,,,0.00,0,Wunderground v.1.15,2013-03-08 09:08:00,
2013-03-08 04:18:00,29.7,29.0,29.97,NE,38,2.0,2.0,97,0.00,,,0.00,0,Wunderground v.1.15,2013-03-08 09:18:00,
2013-03-08 04:23:00,29.7,29.0,29.97,NW,306,1.0,2.0,97,0.00,,,0.00,0,Wunderground v.1.15,2013-03-08 09:23:00,
2013-03-08 04:28:00,29.7,29.0,29.97,North,5,1.0,2.0,97,0.00,,,0.00,0,Wunderground v.1.15,2013-03-08 09:28:00,
2013-03-08 04:33:00,29.6,28.9,29.97,North,360,2.0,2.0,97,0.00,,,0.00,0,Wunderground v.1.15,2013-03-08 09:33:00,
2013-03-08 04:38:00,29.6,28.9,29.97,NNW,346,1.0,4.0,97,0.00,,,0.00,0,Wunderground v.1.15,2013-03-08 09:38:00,
2013-03-08 04:43:00,29.6,28.9,29.97,North,360,1.0,4.0,97,0.00,,,0.00,0,Wunderground v.1.15,2013-03-08 09:43:00,
2013-03-08 04:53:00,29.6,28.9,29.97,NE,38,2.0,2.0,97,0.00,,,0.00,0,Wunderground v.1.15,2013-03-08 09:53:00,
2013-03-08 04:58:00,29.6,28.9,29.97,WNW,288,2.0,2.0,97,0.00,,,0.00,0,Wunderground v.1.15,2013-03-08 09:58:00,
2013-03-08 05:03:00,29.6,28.9,29.96,NNW,331,1.0,1.0,97,0.00,,,0.00,0,Wunderground v.1.15,2013-03-08 10:03:00,
2013-03-08 05:08:00,29.6,28.9,29.97,NE,40,1.0,4.0,97,0.00,,,0.00,0,Wunderground v.1.15,2013-03-08 10:08:00,
2013-03-08 05:18:00,29.5,28.8,29.96,NNE,32,2.0,3.0,97,0.00,,,0.00,0,Wunderground v.1.15,2013-03-08 10:18:00,
2013-03-08 05:28:00,29.5,28.8,29.97,ENE,66,2.0,3.0,97,0.00,,,0.00,0,Wunderground v.1.15,2013-03-08 10:28:00,
2013-03-08 05:33:00,29.5,28.8,29.97,North,5,2.0,3.0,97,0.00,,,0.00,0,Wunderground v.1.15,2013-03-08 10:33:00,
2013-03-08 05:38:00,29.5,28.8,29.97,NE,40,2.0,3.0,97,0.00,,,0.00,0,Wunderground v.1.15,2013-03-08 10:38:00,
2013-03-08 05:43:00,29.5,28.5,29.97,NNE,26,2.0,2.0,96,0.00,,,0.00,0,Wunderground v.1.15,2013-03-08 10:43:00,
2013-03-08 05:53:00,29.5,28.5,29.97,NE,53,1.0,2.0,96,0.00,,,0.00,0,Wunderground v.1.15,2013-03-08 10:53:00,
2013-03-08 05:58:00,29.4,28.4,29.97,NNE,14,2.0,2.0,96,0.00,,,0.00,0,Wunderground v.1.15,2013-03-08 10:58:00,
2013-03-08 06:03:00,29.4,28.4,29.98,NNE,24,2.0,2.0,96,0.00,,,0.00,0,Wunderground v.1.15,2013-03-08 11:03:00,
2013-03-08 06:08:00,29.4,28.4,29.98,NNW,342,2.0,2.0,96,0.00,,,0.00,0,Wunderground v.1.15,2013-03-08 11:08:00,
2013-03-08 06:13:00,29.4,28.4,29.98,NNE,21,2.0,2.0,96,0.00,,,0.00,0,Wunderground v.1.15,2013-03-08 11:13:00,
2013-03-08 06:18:00,29.4,28.4,29.98,North,350,2.0,2.0,96,0.00,,,0.00,0,Wunderground v.1.15,2013-03-08 11:18:00,
2013-03-08 06:28:00,29.4,28.4,29.98,ENE,57,1.0,7.0,96,0.00,,,0.00,0,Wunderground v.1.15,2013-03-08 11:28:00,
2013-03-08 06:33:00,29.3,28.3,29.98,ENE,58,2.0,2.0,96,0.00,,,0.00,0,Wunderground v.1.15,2013-03-08 11:33:00,
2013-03-08 06:38:00,29.3,28.3,29.99,NNE,27,2.0,2.0,96,0.00,,,0.00,0,Wunderground v.1.15,2013-03-08 11:38:00,
2013-03-08 06:48:00,29.3,28.6,29.99,NNE,29,1.0,3.0,97,0.00,,,0.00,0,Wunderground v.1.15,2013-03-08 11:48:00,
2013-03-08 06:53:00,29.2,28.5,29.99,NNE,22,2.0,2.0,97,0.00,,,0.00,0,Wunderground v.1.15,2013-03-08 11:53:00,
2013-03-08 06:58:00,29.2,28.5,29.99,NE,43,2.0,2.0,97,0.00,,,0.00,0,Wunderground v.1.15,2013-03-08 11:58:00,
2013-03-08 07:03:00,29.2,28.5,29.99,North,355,2.0,4.0,97,0.00,,,0.00,0,Wunderground v.1.15,2013-03-08 12:03:00,
2013-03-08 07:08:00,29.2,28.5,29.99,North,5,2.0,4.0,97,0.00,,,0.00,0,Wunderground v.1.15,2013-03-08 12:08:00,
2013-03-08 07:18:00,29.2,28.2,29.99,ENE,61,2.0,3.0,96,0.00,,,0.00,0,Wunderground v.1.15,2013-03-08 12:18:00,
2013-03-08 07:23:00,29.2,28.2,29.99,NNE,23,2.0,6.0,96,0.00,,,0.00,0,Wunderground v.1.15,2013-03-08 12:23:00,
2013-03-08 07:28:00,29.2,28.2,29.99,NW,325,2.0,6.0,96,0.00,,,0.00,0,Wunderground v.1.15,2013-03-08 12:28:00,
2013-03-08 07:33:00,29.1,28.1,29.99,North,360,2.0,2.0,96,0.00,,,0.00,0,Wunderground v.1.15,2013-03-08 12:33:00,
2013-03-08 07:43:00,29.1,28.1,29.99,ENE,72,1.0,1.0,96,0.00,,,0.00,0,Wunderground v.1.15,2013-03-08 12:43:00,
2013-03-08 07:48:00,29.1,28.1,29.99,North,355,1.0,2.0,96,0.00,,,0.00,0,Wunderground v.1.15,2013-03-08 12:48:00,
2013-03-08 07:53:00,29.1,28.1,29.99,ENE,61,1.0,3.0,96,0.00,,,0.00,0,Wunderground v.1.15,2013-03-08 12:53:00,
2013-03-08 07:58:00,29.1,28.1,29.99,North,360,1.0,3.0,96,0.00,,,0.00,0,Wunderground v.1.15,2013-03-08 12:58:00,
2013-03-08 08:08:00,29.1,28.4,29.99,NE,52,1.0,1.0,97,0.00,,,0.00,0,Wunderground v.1.15,2013-03-08 13:08:00,
2013-03-08 08:13:00,29.2,28.2,29.99,North,5,1.0,5.0,96,0.00,,,0.00,0,Wunderground v.1.15,2013-03-08 13:13:00,
2013-03-08 08:18:00,29.2,28.5,29.99,ENE,59,1.0,5.0,97,0.00,,,0.00,0,Wunderground v.1.15,2013-03-08 13:18:00,
2013-03-08 08:28:00,29.2,28.5,29.99,ENE,72,1.0,2.0,97,0.00,,,0.00,0,Wunderground v.1.15,2013-03-08 13:28:00,
2013-03-08 08:33:00,29.2,28.5,29.99,ENE,69,1.0,1.0,97,0.00,,,0.00,0,Wunderground v.1.15,2013-03-08 13:33:00,
2013-03-08 08:38:00,29.3,28.6,29.99,ENE,74,1.0,1.0,97,0.00,,,0.00,0,Wunderground v.1.15,2013-03-08 13:38:00,
2013-03-08 08:43:00,29.3,28.3,30.00,North,11,1.0,1.0,96,0.00,,,0.00,0,Wunderground v.1.15,2013-03-08 13:43:00,
2013-03-08 08:48:00,29.4,28.4,30.00,NE,56,1.0,2.0,96,0.00,,,0.00,0,Wunderground v.1.15,2013-03-08 13:48:00,
2013-03-08 08:53:00,29.4,28.4,30.00,NE,46,1.0,1.0,96,0.00,,,0.00,0,Wunderground v.1.15,2013-03-08 13:53:00,
2013-03-08 08:58:00,29.5,28.5,30.00,NE,40,1.0,2.0,96,0.00,,,0.00,0,Wunderground v.1.15,2013-03-08 13:58:00,
2013-03-08 09:08:00,29.6,28.6,30.00,NE,46,1.0,1.0,96,0.00,,,0.00,0,Wunderground v.1.15,2013-03-08 14:08:00,
2013-03-08 09:13:00,29.7,28.7,30.00,NE,43,1.0,2.0,96,0.00,,,0.00,0,Wunderground v.1.15,2013-03-08 14:13:00,
2013-03-08 09:18:00,29.7,28.7,30.00,NNE,30,1.0,2.0,96,0.00,,,0.00,5,Wunderground v.1.15,2013-03-08 14:18:00,
2013-03-08 09:23:00,29.8,28.8,30.00,NNE,31,2.0,3.0,96,0.00,,,0.00,5,Wunderground v.1.15,2013-03-08 14:23:00,
2013-03-08 09:33:00,29.9,28.9,30.00,NE,56,2.0,2.0,96,0.00,,,0.00,7,Wunderground v.1.15,2013-03-08 14:33:00,
2013-03-08 09:38:00,30.1,29.1,30.00,NNW,327,1.0,2.0,96,0.00,,,0.00,7,Wunderground v.1.15,2013-03-08 14:38:00,
2013-03-08 09:43:00,30.2,29.2,30.01,NE,38,1.0,3.0,96,0.00,,,0.00,7,Wunderground v.1.15,2013-03-08 14:43:00,
2013-03-08 09:53:00,30.4,29.1,30.01,NNW,336,1.0,1.0,95,0.00,,,0.00,9,Wunderground v.1.15,2013-03-08 14:53:00,
2013-03-08 09:58:00,30.5,29.2,30.01,NE,41,2.0,2.0,95,0.00,,,0.00,7,Wunderground v.1.15,2013-03-08 14:58:00,
2013-03-08 10:08:00,30.7,29.2,30.01,NE,41,1.0,3.0,94,0.00,,,0.00,5,Wunderground v.1.15,2013-03-08 15:08:00,
2013-03-08 10:13:00,30.7,29.2,30.01,NE,46,2.0,2.0,94,0.00,,,0.00,5,Wunderground v.1.15,2013-03-08 15:13:00,
2013-03-08 10:18:00,30.8,29.3,30.01,NNE,31,2.0,2.0,94,0.00,,,0.00,5,Wunderground v.1.15,2013-03-08 15:18:00,
2013-03-08 10:23:00,30.8,29.0,30.01,ENE,75,1.0,1.0,93,0.00,,,0.00,7,Wunderground v.1.15,2013-03-08 15:23:00,
2013-03-08 10:28:00,31.0,29.2,30.01,NE,42,1.0,1.0,93,0.00,,,0.00,5,Wunderground v.1.15,2013-03-08 15:28:00,
2013-03-08 10:38:00,31.0,29.2,30.02,NNW,329,2.0,6.0,93,0.00,,,0.00,5,Wunderground v.1.15,2013-03-08 15:38:00,
2013-03-08 10:43:00,31.0,29.2,30.02,NE,38,2.0,2.0,93,0.00,,,0.00,5,Wunderground v.1.15,2013-03-08 15:43:00,
2013-03-08 10:48:00,30.9,29.4,30.02,North,5,2.0,2.0,94,0.00,,,0.00,5,Wunderground v.1.15,2013-03-08 15:48:00,
2013-03-08 10:58:00,30.9,29.4,30.02,NNE,19,2.0,2.0,94,0.00,,,0.00,7,Wunderground v.1.15,2013-03-08 15:58:00,
2013-03-08 11:03:00,30.9,29.6,30.02,NNW,338,1.0,1.0,95,0.00,,,0.00,7,Wunderground v.1.15,2013-03-08 16:03:00,
2013-03-08 11:08:00,31.0,29.7,30.02,NE,49,1.0,3.0,95,0.00,,,0.00,7,Wunderground v.1.15,2013-03-08 16:08:00,
2013-03-08 11:13:00,31.0,29.7,30.02,NE,34,1.0,1.0,95,0.00,,,0.00,5,Wunderground v.1.15,2013-03-08 16:13:00,
2013-03-08 11:18:00,31.0,29.7,30.01,NNW,338,1.0,1.0,95,0.00,,,0.00,5,Wunderground v.1.15,2013-03-08 16:18:00,
2013-03-08 11:28:00,31.1,29.8,30.02,NNE,18,1.0,1.0,95,0.00,,,0.00,5,Wunderground v.1.15,2013-03-08 16:28:00,
2013-03-08 11:33:00,31.1,30.1,30.02,NE,53,1.0,1.0,96,0.00,,,0.00,5,Wunderground v.1.15,2013-03-08 16:33:00,
2013-03-08 11:38:00,31.2,30.2,30.02,NW,326,1.0,1.0,96,0.00,,,0.00,5,Wunderground v.1.15,2013-03-08 16:38:00,
2013-03-08 11:43:00,31.3,30.3,30.02,NE,50,2.0,2.0,96,0.00,,,0.00,5,Wunderground v.1.15,2013-03-08 16:43:00,
2013-03-08 11:53:00,31.4,30.4,30.01,NE,46,1.0,1.0,96,0.00,,,0.00,7,Wunderground v.1.15,2013-03-08 16:53:00,
2013-03-08 11:58:00,31.5,30.2,30.01,NE,40,1.0,1.0,95,0.00,,,0.00,9,Wunderground v.1.15,2013-03-08 16:58:00,
2013-03-08 12:03:00,31.8,30.5,30.01,NE,40,1.0,1.0,95,0.00,,,0.00,12,Wunderground v.1.15,2013-03-08 17:03:00,
2013-03-08 12:08:00,32.1,30.8,30.01,NE,40,0.0,1.0,95,0.00,,,0.00,12,Wunderground v.1.15,2013-03-08 17:08:00,
2013-03-08 12:18:00,33.0,30.7,30.02,ENE,63,1.0,3.0,91,0.00,,,0.00,14,Wunderground v.1.15,2013-03-08 17:18:00,
2013-03-08 12:23:00,33.7,30.8,30.02,NE,44,1.0,2.0,89,0.00,,,0.00,12,Wunderground v.1.15,2013-03-08 17:23:00,
2013-03-08 12:28:00,34.3,30.5,30.02,NNW,342,1.0,2.0,86,0.00,,,0.00,12,Wunderground v.1.15,2013-03-08 17:28:00,
2013-03-08 12:38:00,35.1,30.8,30.02,NNE,26,2.0,2.0,84,0.00,,,0.00,16,Wunderground v.1.15,2013-03-08 17:38:00,
2013-03-08 12:43:00,35.4,30.5,30.01,NE,53,2.0,2.0,82,0.00,,,0.00,14,Wunderground v.1.15,2013-03-08 17:43:00,
2013-03-08 12:48:00,35.9,30.3,30.01,ENE,66,1.0,3.0,80,0.00,,,0.00,14,Wunderground v.1.15,2013-03-08 17:48:00,
2013-03-08 12:53:00,36.2,30.0,30.01,ENE,59,2.0,3.0,78,0.00,,,0.00,12,Wunderground v.1.15,2013-03-08 17:53:00,
2013-03-08 13:03:00,36.7,30.5,30.01,NNE,19,2.0,2.0,78,0.00,,,0.00,14,Wunderground v.1.15,2013-03-08 18:03:00,
2013-03-08 13:08:00,36.9,30.4,30.02,NNE,26,1.0,2.0,77,0.00,,,0.00,14,Wunderground v.1.15,2013-03-08 18:08:00,
2013-03-08 13:13:00,37.0,30.5,30.02,NNE,24,1.0,4.0,77,0.00,,,0.00,14,Wunderground v.1.15,2013-03-08 18:13:00,
2013-03-08 13:18:00,37.2,30.7,30.02,NE,40,2.0,4.0,77,0.00,,,0.00,14,Wunderground v.1.15,2013-03-08 18:18:00,
2013-03-08 13:28:00,37.4,30.5,30.02,NE,49,1.0,1.0,76,0.00,,,0.00,12,Wunderground v.1.15,2013-03-08 18:28:00,
2013-03-08 13:33:00,37.6,30.4,30.02,ENE,57,1.0,1.0,75,0.00,,,0.00,14,Wunderground v.1.15,2013-03-08 18:33:00,
2013-03-08 13:38:00,37.8,30.6,30.02,NE,40,2.0,4.0,75,0.00,,,0.00,16,Wunderground v.1.15,2013-03-08 18:38:00,
2013-03-08 13:43:00,38.2,30.3,30.02,NE,53,2.0,2.0,73,0.00,,,0.00,14,Wunderground v.1.15,2013-03-08 18:43:00,
2013-03-08 13:48:00,38.2,31.0,30.02,NE,53,2.0,2.0,75,0.00,,,0.00,12,Wunderground v.1.15,2013-03-08 18:48:00,
2013-03-08 13:58:00,38.4,30.2,30.02,North,360,2.0,2.0,72,0.00,,,0.00,14,Wunderground v.1.15,2013-03-08 18:58:00,
2013-03-08 14:03:00,38.3,31.7,30.02,NE,48,1.0,1.0,77,0.00,,,0.00,14,Wunderground v.1.15,2013-03-08 19:03:00,
2013-03-08 14:08:00,38.2,30.3,30.02,North,360,1.0,3.0,73,0.00,,,0.00,12,Wunderground v.1.15,2013-03-08 19:08:00,
2013-03-08 14:13:00,38.6,30.0,30.02,NE,55,2.0,2.0,71,0.00,,,0.00,11,Wunderground v.1.15,2013-03-08 19:13:00,
2013-03-08 14:18:00,38.8,30.9,30.02,NE,46,2.0,2.0,73,0.00,,,0.00,11,Wunderground v.1.15,2013-03-08 19:18:00,
2013-03-08 14:28:00,38.9,31.0,30.02,ENE,59,1.0,2.0,73,0.00,,,0.00,12,Wunderground v.1.15,2013-03-08 19:28:00,
2013-03-08 14:33:00,38.7,33.1,30.02,ENE,59,1.0,1.0,80,0.00,,,0.00,14,Wunderground v.1.15,2013-03-08 19:33:00,
2013-03-08 14:38:00,38.3,30.4,30.02,NNE,19,1.0,5.0,73,0.00,,,0.00,14,Wunderground v.1.15,2013-03-08 19:38:00,
2013-03-08 14:43:00,38.5,30.9,30.02,NNE,19,2.0,2.0,74,0.00,,,0.00,14,Wunderground v.1.15,2013-03-08 19:43:00,
2013-03-08 14:53:00,39.0,31.1,30.02,North,355,1.0,1.0,73,0.00,,,0.00,14,Wunderground v.1.15,2013-03-08 19:53:00,
2013-03-08 14:58:00,38.9,32.0,30.03,North,5,1.0,1.0,76,0.00,,,0.00,14,Wunderground v.1.15,2013-03-08 19:58:00,
2013-03-08 15:03:00,38.5,31.9,30.03,North,10,1.0,2.0,77,0.00,,,0.00,14,Wunderground v.1.15,2013-03-08 20:03:00,
2013-03-08 15:13:00,39.1,32.8,30.03,NNE,33,1.0,2.0,78,0.00,,,0.00,12,Wunderground v.1.15,2013-03-08 20:13:00,
2013-03-08 15:18:00,39.0,31.4,30.03,NE,38,1.0,2.0,74,0.00,,,0.00,12,Wunderground v.1.15,2013-03-08 20:18:00,
2013-03-08 15:23:00,38.9,31.0,30.03,NE,43,1.0,1.0,73,0.00,,,0.00,11,Wunderground v.1.15,2013-03-08 20:23:00,
2013-03-08 15:28:00,38.6,32.0,30.03,NNE,14,1.0,1.0,77,0.00,,,0.00,11,Wunderground v.1.15,2013-03-08 20:28:00,
2013-03-08 15:38:00,37.8,33.1,30.04,NE,35,1.0,1.0,83,0.00,,,0.00,11,Wunderground v.1.15,2013-03-08 20:38:00,
2013-03-08 15:43:00,37.5,32.2,30.04,NE,49,1.0,3.0,81,0.00,,,0.00,11,Wunderground v.1.15,2013-03-08 20:43:00,
2013-03-08 15:48:00,37.9,32.6,30.04,NW,314,1.0,3.0,81,0.00,,,0.00,11,Wunderground v.1.15,2013-03-08 20:48:00,
2013-03-08 15:58:00,37.4,33.6,30.04,NNE,18,0.0,1.0,86,0.00,,,0.00,11,Wunderground v.1.15,2013-03-08 20:58:00,
2013-03-08 16:03:00,36.9,33.4,30.04,North,5,0.0,0.0,87,0.00,,,0.00,12,Wunderground v.1.15,2013-03-08 21:03:00,
2013-03-08 16:08:00,36.5,33.3,30.05,North,5,0.0,0.0,88,0.00,,,0.00,12,Wunderground v.1.15,2013-03-08 21:08:00,
2013-03-08 16:13:00,36.3,33.6,30.05,North,5,0.0,0.0,90,0.00,,,0.00,11,Wunderground v.1.15,2013-03-08 21:13:00,
2013-03-08 16:18:00,36.1,33.5,30.05,North,5,0.0,1.0,90,0.00,,,0.00,11,Wunderground v.1.15,2013-03-08 21:18:00,
2013-03-08 16:28:00,35.8,33.4,30.06,North,5,0.0,0.0,91,0.00,,,0.00,11,Wunderground v.1.15,2013-03-08 21:28:00,
2013-03-08 16:33:00,35.7,33.6,30.06,North,5,0.0,0.0,92,0.00,,,0.00,9,Wunderground v.1.15,2013-03-08 21:33:00,
2013-03-08 16:38:00,35.7,33.6,30.06,North,5,0.0,0.0,92,0.00,,,0.00,9,Wunderground v.1.15,2013-03-08 21:38:00,
2013-03-08 16:43:00,35.6,33.5,30.06,North,5,0.0,0.0,92,0.00,,,0.00,9,Wunderground v.1.15,2013-03-08 21:43:00,
2013-03-08 16:53:00,35.5,33.7,30.06,North,5,0.0,0.0,93,0.00,,,0.00,7,Wunderground v.1.15,2013-03-08 21:53:00,
2013-03-08 16:58:00,35.5,33.7,30.07,North,5,0.0,0.0,93,0.00,,,0.00,9,Wunderground v.1.15,2013-03-08 21:58:00,
2013-03-08 17:03:00,35.3,33.7,30.07,North,5,0.0,0.0,94,0.00,,,0.00,9,Wunderground v.1.15,2013-03-08 22:03:00,
2013-03-08 17:08:00,35.2,33.6,30.07,North,5,0.0,0.0,94,0.00,,,0.00,0,Wunderground v.1.15,2013-03-08 22:08:00,
2013-03-08 17:13:00,35.1,33.5,30.08,North,5,0.0,0.0,94,0.00,,,0.00,0,Wunderground v.1.15,2013-03-08 22:13:00,
2013-03-08 17:23:00,34.9,33.3,30.08,North,5,0.0,0.0,94,0.00,,,0.00,0,Wunderground v.1.15,2013-03-08 22:23:00,
2013-03-08 17:28:00,34.8,33.2,30.08,North,5,0.0,0.0,94,0.00,,,0.00,0,Wunderground v.1.15,2013-03-08 22:28:00,
2013-03-08 17:33:00,34.7,33.2,30.08,North,5,0.0,1.0,94,0.00,,,0.00,0,Wunderground v.1.15,2013-03-08 22:33:00,
2013-03-08 17:38:00,34.6,33.1,30.08,North,5,0.0,1.0,94,0.00,,,0.00,0,Wunderground v.1.15,2013-03-08 22:38:00,
2013-03-08 17:43:00,34.5,33.0,30.08,North,5,0.0,1.0,94,0.00,,,0.00,0,Wunderground v.1.15,2013-03-08 22:43:00,
2013-03-08 17:48:00,34.4,33.1,30.09,North,5,0.0,2.0,95,0.00,,,0.00,0,Wunderground v.1.15,2013-03-08 22:48:00,
2013-03-08 17:58:00,34.4,32.9,30.09,NNE,31,1.0,1.0,94,0.00,,,0.00,0,Wunderground v.1.15,2013-03-08 22:58:00,
2013-03-08 18:03:00,35.2,32.3,30.09,NE,41,1.0,1.0,89,0.00,,,0.00,0,Wunderground v.1.15,2013-03-08 23:03:00,
2013-03-08 18:08:00,35.6,33.0,30.09,NNE,29,1.0,1.0,90,0.00,,,0.00,0,Wunderground v.1.15,2013-03-08 23:08:00,
2013-03-08 18:18:00,35.4,33.0,30.10,NNE,29,0.0,1.0,91,0.00,,,0.00,0,Wunderground v.1.15,2013-03-08 23:18:00,
2013-03-08 18:23:00,35.3,32.7,30.10,NNE,14,0.0,6.0,90,0.00,,,0.00,0,Wunderground v.1.15,2013-03-08 23:23:00,
2013-03-08 18:28:00,35.7,31.9,30.10,NNE,28,1.0,6.0,86,0.00,,,0.00,0,Wunderground v.1.15,2013-03-08 23:28:00,
2013-03-08 18:33:00,35.8,32.9,30.10,NNE,28,1.0,1.0,89,0.00,,,0.00,0,Wunderground v.1.15,2013-03-08 23:33:00,
2013-03-08 18:38:00,35.6,33.0,30.10,NNE,28,0.0,1.0,90,0.00,,,0.00,0,Wunderground v.1.15,2013-03-08 23:38:00,
2013-03-08 18:48:00,35.2,32.3,30.10,ENE,60,1.0,1.0,89,0.00,,,0.00,0,Wunderground v.1.15,2013-03-08 23:48:00,
2013-03-08 18:53:00,35.2,32.0,30.11,NE,47,1.0,1.0,88,0.00,,,0.00,0,Wunderground v.1.15,2013-03-08 23:53:00,
2013-03-08 18:58:00,35.5,31.4,30.11,NNE,19,1.0,1.0,85,0.00,,,0.00,0,Wunderground v.1.15,2013-03-08 23:58:00,
2013-03-08 19:08:00,36.6,29.7,30.11,NE,52,1.0,4.0,76,0.00,,,0.00,0,Wunderground v.1.15,2013-03-09 00:08:00,
2013-03-08 19:13:00,38.2,31.3,30.11,NE,50,2.0,2.0,76,0.00,,,0.00,0,Wunderground v.1.15,2013-03-09 00:13:00,
2013-03-08 19:18:00,38.3,29.0,30.11,NE,50,1.0,2.0,69,0.00,,,0.00,0,Wunderground v.1.15,2013-03-09 00:18:00,
2013-03-08 19:23:00,39.0,29.3,30.11,North,5,1.0,2.0,68,0.00,,,0.00,0,Wunderground v.1.15,2013-03-09 00:23:00,
2013-03-08 19:28:00,39.0,32.1,30.11,North,5,1.0,2.0,76,0.00,,,0.00,0,Wunderground v.1.15,2013-03-09 00:28:00,
2013-03-08 19:38:00,39.0,29.3,30.12,ENE,60,1.0,1.0,68,0.00,,,0.00,0,Wunderground v.1.15,2013-03-09 00:38:00,
2013-03-08 19:43:00,38.6,30.4,30.12,North,5,1.0,1.0,72,0.00,,,0.00,0,Wunderground v.1.15,2013-03-09 00:43:00,
2013-03-08 19:48:00,38.2,31.6,30.12,North,360,0.0,1.0,77,0.00,,,0.00,0,Wunderground v.1.15,2013-03-09 00:48:00,
2013-03-08 19:58:00,37.7,28.1,30.12,NNE,28,1.0,1.0,68,0.00,,,0.00,0,Wunderground v.1.15,2013-03-09 00:58:00,
2013-03-08 20:03:00,37.6,30.4,30.13,NE,34,0.0,0.0,75,0.00,,,0.00,0,Wunderground v.1.15,2013-03-09 01:03:00,
2013-03-08 20:08:00,37.1,30.6,30.13,NE,34,0.0,1.0,77,0.00,,,0.00,0,Wunderground v.1.15,2013-03-09 01:08:00,
2013-03-08 20:13:00,36.7,28.9,30.13,North,10,1.0,4.0,73,0.00,,,0.00,0,Wunderground v.1.15,2013-03-09 01:13:00,
2013-03-08 20:23:00,37.7,29.1,30.13,NE,35,1.0,1.0,71,0.00,,,0.00,0,Wunderground v.1.15,2013-03-09 01:23:00,
2013-03-08 20:28:00,37.7,31.1,30.13,NE,35,0.0,1.0,77,0.00,,,0.00,0,Wunderground v.1.15,2013-03-09 01:28:00,
2013-03-08 20:33:00,37.3,31.1,30.13,NNE,17,0.0,0.0,78,0.00,,,0.00,0,Wunderground v.1.15,2013-03-09 01:33:00,
2013-03-08 20:43:00,36.2,30.9,30.14,NNE,17,0.0,0.0,81,0.00,,,0.00,0,Wunderground v.1.15,2013-03-09 01:43:00,
2013-03-08 20:48:00,35.7,30.1,30.14,NNE,17,0.0,2.0,80,0.00,,,0.00,0,Wunderground v.1.15,2013-03-09 01:48:00,
2013-03-08 20:53:00,35.7,28.9,30.14,NNE,28,0.0,2.0,76,0.00,,,0.00,0,Wunderground v.1.15,2013-03-09 01:53:00,
2013-03-08 21:03:00,36.4,27.5,30.14,NNE,23,1.0,1.0,70,0.00,,,0.00,0,Wunderground v.1.15,2013-03-09 02:03:00,
2013-03-08 21:08:00,36.8,26.9,30.14,NNE,20,1.0,1.0,67,0.00,,,0.00,0,Wunderground v.1.15,2013-03-09 02:08:00,
2013-03-08 21:13:00,37.2,30.3,30.14,NNE,20,0.0,2.0,76,0.00,,,0.00,0,Wunderground v.1.15,2013-03-09 02:13:00,
2013-03-08 21:18:00,37.1,27.9,30.14,West,260,0.0,2.0,69,0.00,,,0.00,0,Wunderground v.1.15,2013-03-09 02:18:00,
2013-03-08 21:28:00,36.9,28.7,30.15,West,260,0.0,1.0,72,0.00,,,0.00,0,Wunderground v.1.15,2013-03-09 02:28:00,
2013-03-08 21:33:00,37.3,26.6,30.15,NW,311,1.0,2.0,65,0.00,,,0.00,0,Wunderground v.1.15,2013-03-09 02:33:00,
2013-03-08 21:38:00,37.9,26.0,30.15,ENE,57,1.0,2.0,62,0.00,,,0.00,0,Wunderground v.1.15,2013-03-09 02:38:00,
2013-03-08 21:43:00,38.6,25.9,30.15,North,360,1.0,4.0,60,0.00,,,0.00,0,Wunderground v.1.15,2013-03-09 02:43:00,
2013-03-08 21:48:00,39.1,26.4,30.15,NNE,23,1.0,4.0,60,0.00,,,0.00,0,Wunderground v.1.15,2013-03-09 02:48:00,
2013-03-08 21:58:00,38.6,28.9,30.15,NE,42,0.0,1.0,68,0.00,,,0.00,0,Wunderground v.1.15,2013-03-09 02:58:00,
2013-03-08 22:03:00,38.3,27.6,30.15,NE,42,0.0,1.0,65,0.00,,,0.00,0,Wunderground v.1.15,2013-03-09 03:03:00,
2013-03-08 22:08:00,38.2,25.9,30.15,NNE,24,1.0,1.0,61,0.00,,,0.00,0,Wunderground v.1.15,2013-03-09 03:08:00,
2013-03-08 22:13:00,38.3,27.6,30.15,NE,37,1.0,1.0,65,0.00,,,0.00,0,Wunderground v.1.15,2013-03-09 03:13:00,
2013-03-08 22:23:00,38.0,25.7,30.16,NE,52,1.0,1.0,61,0.00,,,0.00,0,Wunderground v.1.15,2013-03-09 03:23:00,
2013-03-08 22:28:00,38.2,27.5,30.16,NNE,19,1.0,1.0,65,0.00,,,0.00,0,Wunderground v.1.15,2013-03-09 03:28:00,
2013-03-08 22:38:00,38.7,27.6,30.16,NE,38,1.0,2.0,64,0.00,,,0.00,0,Wunderground v.1.15,2013-03-09 03:38:00,
2013-03-08 22:43:00,38.4,26.9,30.16,ENE,69,0.0,1.0,63,0.00,,,0.00,0,Wunderground v.1.15,2013-03-09 03:43:00,
2013-03-08 22:48:00,38.4,28.8,30.16,ENE,69,1.0,1.0,68,0.00,,,0.00,0,Wunderground v.1.15,2013-03-09 03:48:00,
2013-03-08 22:53:00,38.3,26.0,30.15,North,11,1.0,2.0,61,0.00,,,0.00,0,Wunderground v.1.15,2013-03-09 03:53:00,
2013-03-08 22:58:00,38.4,25.7,30.15,North,5,1.0,2.0,60,0.00,,,0.00,0,Wunderground v.1.15,2013-03-09 03:58:00,
2013-03-08 23:08:00,38.4,26.5,30.15,North,5,0.0,0.0,62,0.00,,,0.00,0,Wunderground v.1.15,2013-03-09 04:08:00,
2013-03-08 23:13:00,38.1,26.6,30.15,NE,42,0.0,2.0,63,0.00,,,0.00,0,Wunderground v.1.15,2013-03-09 04:13:00,
2013-03-08 23:18:00,38.0,25.7,30.15,North,360,1.0,2.0,61,0.00,,,0.00,0,Wunderground v.1.15,2013-03-09 04:18:00,
2013-03-08 23:28:00,38.1,24.6,30.15,WSW,247,1.0,2.0,58,0.00,,,0.00,0,Wunderground v.1.15,2013-03-09 04:28:00,
2013-03-08 23:33:00,38.2,24.7,30.15,NNE,33,1.0,1.0,58,0.00,,,0.00,0,Wunderground v.1.15,2013-03-09 04:33:00,
2013-03-08 23:38:00,38.3,24.8,30.16,NNE,28,1.0,1.0,58,0.00,,,0.00,0,Wunderground v.1.15,2013-03-09 04:38:00,
2013-03-08 23:43:00,38.2,25.1,30.16,NE,34,1.0,4.0,59,0.00,,,0.00,0,Wunderground v.1.15,2013-03-09 04:43:00,
2013-03-08 23:48:00,38.2,24.7,30.16,NNW,327,1.0,4.0,58,0.00,,,0.00,0,Wunderground v.1.15,2013-03-09 04:48:00,
2013-03-08 23:58:00,38.4,24.5,30.15,NNE,22,1.0,4.0,57,0.00,,,0.00,0,Wunderground v.1.15,2013-03-09 04:58:00,